[[{"header":{"parameterUnit":"m.s-1","parameterCategory":1,"la1":30.2991,"la2":30.254,"lo1":-89.0895,"lo2":-89.0444,"dy":0.0017,"dx":0.0017,"nx":28,"ny":28,"refTime":"2025-08-09T03:00:00:Z","depth":0,"parameterNumber":2,"parameterNumberName":"U-component_of_WINDS"},"data":[0,0,0,0,0,0,0,0,0,0,0,0,0,0,0,0,0,0,0,0,0,0,0,0,0,0,0,0,0,0,0,0,0,0,0,0,0,0,0,0,0,0,0,0,0,0,0,0,0,0,0,0,0,0,0,0,0,0,-1.571,-1.571,0,-1.5642,-1.5641,-1.564,-1.5514,-1.5512,-1.5509,-1.5507,-1.5439,-1.544,-1.544,0,0,0,0,0,0,0,0,0,0,0,0,0,-1.5737,-1.5737,-1.571,-1.571,-1.5709,-1.5642,-1.5641,-1.564,-1.5514,-1.5511,-1.5509,-1.5506,-1.5439,-1.544,-1.544,0,0,0,0,0,0,0,0,0,0,0,0,0,-1.5703,-1.5737,-1.5711,-1.5638,-1.5631,-1.5642,-1.5641,-1.564,-1.5515,-1.5511,-1.5508,-1.5504,-1.5439,-1.544,-1.544,-1.5518,0,0,-1.5443,-1.5443,0,0,0,0,0,0,0,0,-1.5705,-1.5702,-1.5649,-1.5643,-1.5635,-1.5583,-1.5625,-1.5599,-1.5516,-1.5559,-1.5507,-1.5503,-1.549,-1.5487,-1.5482,-1.5515,-1.5512,-1.5443,-1.5443,-1.5443,-1.5444,0,0,0,0,0,0,0,-1.5707,-1.5704,-1.5683,-1.5649,-1.564,-1.561,-1.5601,-1.562,-1.5546,-1.5555,-1.5546,-1.5539,-1.5486,-1.5481,-1.5479,-1.5511,-1.5443,-1.5443,-1.5444,-1.5444,-1.5608,-1.5612,0,0,0,0,0,0,-1.572,-1.5707,-1.5685,-1.5681,-1.5661,-1.5613,-1.5603,-1.5603,-1.5546,-1.5533,-1.5542,-1.5534,-1.5482,-1.5479,-1.5476,-1.5566,-1.5443,-1.5444,-1.5445,-1.5604,-1.5609,-1.5613,0,0,0,0,0,0,-1.5721,-1.5719,-1.5688,-1.5691,-1.5685,-1.5616,-1.5618,-1.5604,-1.5599,-1.5536,-1.5522,-1.5551,-1.5479,-1.5475,-1.5509,-1.5561,-1.5444,-1.5445,-1.5599,-1.5605,-1.5611,-1.5744,0,0,0,0,0,0,-1.5722,-1.572,-1.5748,-1.5693,-1.5686,-1.5721,-1.5621,-1.5605,-1.5601,-1.5588,-1.5541,-1.5529,-1.5476,-1.5509,-1.551,-1.556,-1.5446,-1.5594,-1.5602,-1.5609,-1.5734,-1.5753,-1.577,0,0,0,0,0,-1.5723,-1.5788,-1.575,-1.5748,-1.5719,-1.5724,-1.572,-1.5657,-1.5605,-1.5634,-1.5593,-1.5531,-1.5555,-1.5513,-1.5514,-1.5565,-1.5591,-1.56,-1.5608,-1.5726,-1.575,-1.5769,0,0,0,0,0,0,-1.5851,-1.5779,-1.5736,-1.5784,-1.5762,-1.5703,-1.5736,-1.5683,-1.5674,-1.5663,-1.5585,-1.5576,-1.5621,-1.5596,-1.555,-1.5639,-1.5564,-1.5573,-1.5653,-1.5675,-1.5692,-1.5698,-1.5446,0,0,0,0,0,-1.5884,-1.5894,-1.5831,-1.588,-1.5871,-1.5806,-1.5806,-1.5759,-1.5733,-1.5723,-1.5684,-1.5662,-1.5665,-1.5668,-1.5667,-1.573,-1.5719,-1.5766,-1.5783,-1.5798,-1.5808,-1.5842,-1.5863,-1.5642,-1.5642,-1.5642,0,0,-1.5954,-1.5916,-1.5927,-1.5905,-1.5881,-1.5895,-1.5799,-1.5816,-1.5826,-1.5725,-1.5755,-1.5727,-1.5697,-1.5747,-1.5767,-1.5727,-1.5866,-1.5809,-1.5822,-1.5823,-1.5853,-1.5874,-1.5893,-1.5648,-1.5647,-1.5646,0,0,-1.6088,-1.606,-1.6098,-1.6077,-1.6043,-1.6,-1.601,-1.596,-1.5937,-1.5966,-1.5892,-1.5903,-1.5908,-1.5891,-1.5883,-1.6014,-1.5957,-1.6015,-1.6108,-1.6143,-1.616,-1.6175,-1.6224,-1.6243,-1.6025,-1.6025,-1.6025,0,-1.618,-1.6196,-1.6125,-1.6149,-1.6142,-1.6051,-1.6092,-1.6075,-1.6043,-1.6041,-1.5997,-1.6005,-1.5978,-1.6023,-1.6056,-1.6051,-1.6062,-1.6021,-1.6163,-1.6178,-1.6191,-1.6237,-1.6255,-1.6033,-1.6032,-1.6031,-1.603,0,-1.6311,-1.6324,-1.6359,-1.6331,-1.6328,-1.636,-1.6296,-1.6302,-1.6256,-1.6219,-1.6251,-1.6216,-1.6207,-1.6214,-1.6169,-1.6255,-1.6232,-1.6177,-1.61,-1.622,-1.6262,-1.6279,-1.6043,-1.6041,-1.6038,-1.6036,0,0,-1.6523,-1.6456,-1.6471,-1.6458,-1.6415,-1.6424,-1.6453,-1.6444,-1.6452,-1.6433,-1.6457,-1.6465,-1.6415,-1.6406,-1.6358,-1.6389,-1.6498,-1.633,-1.6328,-1.6364,-1.6593,-1.6636,-1.6657,-1.646,-1.6463,-1.6465,-1.6596,0,-1.6649,-1.6693,-1.6632,-1.6691,-1.6703,-1.6618,-1.6643,-1.6621,-1.6587,-1.6594,-1.6557,-1.6565,-1.6496,-1.6491,-1.6517,-1.6479,-1.6543,-1.6468,-1.6483,-1.6485,-1.6495,-1.6679,-1.6723,-1.6849,-1.6612,-1.6615,-1.6617,0,-1.6802,-1.6791,-1.6851,-1.6807,-1.681,-1.6834,-1.6822,-1.6829,-1.6803,-1.6776,-1.6768,-1.6711,-1.6739,-1.6664,-1.6702,-1.6653,-1.6655,-1.6638,-1.6641,-1.6641,-1.6559,-1.6686,-1.6887,-1.6907,-1.6641,-1.6639,-1.6638,0,-1.6953,-1.6954,-1.699,-1.6982,-1.693,-1.6949,-1.6929,-1.6899,-1.6899,-1.6889,-1.6889,-1.6883,-1.688,-1.6878,-1.6822,-1.6772,-1.6868,-1.6788,-1.6849,-1.6851,-1.6873,-1.6873,-1.708,-1.6873,-1.6873,-1.6872,-1.6872,0,-1.7101,-1.7142,-1.7058,-1.7081,-1.7125,-1.7055,-1.7101,-1.7072,-1.7047,-1.7064,-1.699,-1.7008,-1.6933,-1.6944,-1.69,-1.694,-1.6939,-1.692,-1.6908,-1.6927,-1.693,-1.6929,-1.6919,-1.6877,-1.6876,-1.6875,-1.6874,0,-1.7278,-1.7223,-1.7258,-1.7207,-1.7195,-1.723,-1.7187,-1.7207,-1.7169,-1.7192,-1.7193,-1.7134,-1.7143,-1.7087,-1.7086,-1.7057,-1.7119,-1.7091,-1.7128,-1.712,-1.7185,-1.718,-1.7399,-1.7426,-1.7201,-1.7203,-1.7205,0,-1.7377,-1.7406,-1.7359,-1.7365,-1.7348,-1.7359,-1.7358,-1.7292,-1.7295,-1.7269,-1.7293,-1.7295,-1.7294,-1.7313,-1.7271,-1.727,-1.7243,-1.732,-1.7243,-1.7262,-1.7247,-1.7247,-1.7251,-1.7337,-1.734,-1.7342,-1.7344,0,-1.7559,-1.7531,-1.7532,-1.7526,-1.7528,-1.7519,-1.7506,-1.7515,-1.7443,-1.7451,-1.7459,-1.7458,-1.7457,-1.7462,-1.7454,-1.7434,-1.7379,-1.7369,-1.7383,-1.7404,-1.7425,-1.7417,-1.7174,-1.7364,-1.7362,-1.7361,-1.7359,-1.7359,-1.7701,-1.7724,-1.7695,-1.77,-1.7684,-1.7674,-1.7691,-1.7655,-1.7661,-1.7655,-1.7615,-1.7632,-1.7607,-1.759,-1.7576,-1.7589,-1.7553,-1.7573,-1.7579,-1.7585,-1.7598,-1.7422,-1.7587,-1.7587,-1.7586,-1.7586,-1.7585,0,-1.7881,-1.7859,-1.7864,-1.7848,-1.7853,-1.7799,-1.7783,-1.7791,-1.7806,-1.7787,-1.7788,-1.78,-1.7804,-1.7764,-1.7764,-1.7782,-1.7757,-1.7785,-1.7783,-1.7781,-1.7629,-1.7618,-1.7805,-1.7805,-1.7805,-1.7805,-1.7805,-1.7805,-1.7976,-1.8013,-1.7982,-1.8012,-1.7989,-1.8004,-1.7999,-1.7991,-1.7976,-1.7992,-1.7995,-1.7968,-1.7942,-1.794,-1.7943,-1.7931,-1.7935,-1.7972,-1.7952,-1.7812,-1.7791,-1.777,-1.7759,-1.7973,-1.7974,-1.8102,-1.8103,-1.8104]},{"header":{"parameterUnit":"m.s-1","parameterCategory":1,"la1":30.2991,"la2":30.254,"lo1":-89.0895,"lo2":-89.0444,"dy":0.0017,"dx":0.0017,"nx":28,"ny":28,"refTime":"2025-08-09T03:00:00:Z","depth":0,"parameterNumber":3,"parameterNumberName":"V-component_of_WINDS"},"data":[0,0,0,0,0,0,0,0,0,0,0,0,0,0,0,0,0,0,0,0,0,0,0,0,0,0,0,0,0,0,0,0,0,0,0,0,0,0,0,0,0,0,0,0,0,0,0,0,0,0,0,0,0,0,0,0,0,0,1.2853,1.2853,0,1.2852,1.2852,1.2852,1.2874,1.2874,1.2875,1.2876,1.2871,1.287,1.287,0,0,0,0,0,0,0,0,0,0,0,0,0,1.2871,1.2871,1.2853,1.2853,1.2853,1.2852,1.2852,1.2852,1.2874,1.2874,1.2875,1.2876,1.2871,1.2871,1.287,0,0,0,0,0,0,0,0,0,0,0,0,0,1.2866,1.287,1.2853,1.2864,1.2865,1.2852,1.2852,1.2852,1.2874,1.2875,1.2875,1.2876,1.2872,1.2871,1.287,1.2846,0,0,1.2867,1.2866,0,0,0,0,0,0,0,0,1.2866,1.2865,1.2862,1.2863,1.2864,1.2864,1.2857,1.285,1.2873,1.287,1.2876,1.2877,1.2868,1.2867,1.2865,1.2845,1.2845,1.2866,1.2866,1.2865,1.2865,0,0,0,0,0,0,0,1.2866,1.2865,1.2853,1.2862,1.2863,1.2868,1.2868,1.2856,1.2864,1.287,1.2872,1.2872,1.2868,1.2866,1.2865,1.2845,1.2867,1.2866,1.2865,1.2865,1.2807,1.2806,0,0,0,0,0,0,1.2866,1.2866,1.2853,1.2853,1.2867,1.2867,1.2867,1.2863,1.2864,1.2865,1.2871,1.2873,1.2867,1.2866,1.2865,1.2837,1.2865,1.2865,1.2864,1.2808,1.2807,1.2806,0,0,0,0,0,0,1.2866,1.2864,1.2853,1.286,1.2858,1.2866,1.2861,1.2863,1.286,1.2865,1.2866,1.2867,1.2868,1.2866,1.2851,1.2837,1.2864,1.2863,1.2809,1.2807,1.2806,1.2781,0,0,0,0,0,0,1.2867,1.2864,1.2856,1.2859,1.2858,1.2839,1.286,1.2862,1.2859,1.2861,1.2861,1.2862,1.2868,1.2852,1.285,1.2836,1.2862,1.281,1.2808,1.2807,1.2783,1.2779,1.2775,0,0,0,0,0,1.2867,1.2848,1.2855,1.2853,1.2847,1.2838,1.2837,1.2846,1.2858,1.2849,1.2852,1.2862,1.284,1.285,1.2848,1.2834,1.2811,1.2809,1.2807,1.2785,1.278,1.2775,0,0,0,0,0,0,1.2841,1.2848,1.2857,1.2838,1.2837,1.2842,1.2831,1.284,1.2836,1.2838,1.2848,1.2848,1.283,1.2831,1.2843,1.2811,1.2827,1.2824,1.2811,1.2806,1.2803,1.2802,1.2862,0,0,0,0,0,1.2833,1.2826,1.2832,1.2815,1.2815,1.2823,1.2819,1.2826,1.2826,1.2825,1.2827,1.2825,1.2818,1.2812,1.2806,1.2784,1.2784,1.2773,1.2769,1.2766,1.2763,1.2752,1.2747,1.2799,1.2799,1.2799,0,0,1.2816,1.282,1.2814,1.281,1.2811,1.2802,1.2822,1.2812,1.2806,1.2823,1.2809,1.281,1.2809,1.279,1.2782,1.279,1.2749,1.2764,1.2761,1.276,1.2749,1.2744,1.274,1.2797,1.2798,1.2798,0,0,1.2781,1.2783,1.277,1.277,1.2771,1.2777,1.2774,1.2778,1.278,1.2766,1.2779,1.2771,1.2758,1.2757,1.2754,1.2722,1.2731,1.2719,1.2698,1.2687,1.2683,1.268,1.2667,1.2663,1.2717,1.2717,1.2716,0,1.276,1.2748,1.2761,1.275,1.2748,1.2766,1.2751,1.2751,1.2749,1.2747,1.2757,1.2742,1.2742,1.2723,1.2716,1.2713,1.2709,1.2718,1.2683,1.268,1.2676,1.2665,1.266,1.2715,1.2715,1.2715,1.2716,0,1.2722,1.2714,1.2703,1.2702,1.2699,1.2687,1.2697,1.2692,1.27,1.2705,1.2691,1.2692,1.2686,1.2683,1.269,1.2665,1.267,1.2681,1.2697,1.267,1.2659,1.2654,1.2713,1.2713,1.2714,1.2714,0,0,1.2667,1.2676,1.2672,1.2672,1.2676,1.2669,1.2658,1.2654,1.265,1.2649,1.2639,1.2629,1.264,1.2637,1.2644,1.2635,1.2608,1.2647,1.2647,1.2639,1.2581,1.2572,1.2566,1.2615,1.2615,1.2614,1.2581,0,1.2633,1.2615,1.2627,1.2606,1.2599,1.2617,1.2607,1.2608,1.2613,1.2607,1.2612,1.2604,1.2619,1.2618,1.2609,1.2613,1.2596,1.2616,1.2605,1.2604,1.2603,1.2561,1.255,1.2519,1.2577,1.2576,1.2575,0,1.259,1.2589,1.2568,1.2574,1.2571,1.2562,1.256,1.2555,1.2556,1.2561,1.2559,1.2569,1.2558,1.2576,1.256,1.2573,1.257,1.2571,1.257,1.2568,1.2587,1.2556,1.2509,1.2504,1.2569,1.2569,1.257,0,1.2551,1.2544,1.2531,1.2531,1.2538,1.2532,1.2534,1.2537,1.2534,1.2532,1.2531,1.2527,1.2525,1.2521,1.253,1.2542,1.2514,1.2532,1.2516,1.2515,1.2507,1.2507,1.2457,1.2507,1.2508,1.2508,1.2508,0,1.251,1.2497,1.2514,1.2506,1.2491,1.2506,1.2491,1.2495,1.2498,1.249,1.2505,1.2498,1.2511,1.2505,1.2512,1.2498,1.2497,1.2499,1.2501,1.2497,1.2496,1.2493,1.2495,1.2506,1.2507,1.2507,1.2507,0,1.2464,1.2475,1.2462,1.2471,1.2473,1.2462,1.2469,1.2461,1.2468,1.2459,1.2457,1.2467,1.2461,1.247,1.2464,1.2469,1.245,1.2456,1.2449,1.2451,1.2434,1.2435,1.2379,1.2372,1.2428,1.2427,1.2427,0,1.2436,1.2426,1.2435,1.2432,1.2434,1.2428,1.2426,1.244,1.2437,1.244,1.2431,1.2427,1.2424,1.2413,1.2419,1.2415,1.242,1.2401,1.2419,1.2415,1.2418,1.2418,1.2417,1.2396,1.2395,1.2395,1.2394,0,1.2386,1.2392,1.2389,1.2389,1.2386,1.2386,1.2386,1.2383,1.2398,1.2394,1.2388,1.2386,1.2381,1.2376,1.2374,1.2376,1.2387,1.2389,1.2385,1.238,1.2376,1.2377,1.2438,1.239,1.239,1.239,1.2391,1.2391,1.2347,1.2339,1.2344,1.2341,1.2343,1.2344,1.2338,1.2345,1.2341,1.2339,1.2348,1.234,1.2343,1.2342,1.2343,1.2337,1.2345,1.2339,1.2337,1.2335,1.2332,1.2379,1.2337,1.2337,1.2337,1.2337,1.2337,0,1.2296,1.2301,1.2298,1.2299,1.2297,1.231,1.2312,1.2308,1.2302,1.2305,1.2302,1.2296,1.2292,1.2299,1.2296,1.2289,1.2294,1.2288,1.2287,1.2288,1.2326,1.2329,1.2284,1.2284,1.2284,1.2284,1.2284,1.2284,1.2269,1.2257,1.2265,1.2254,1.2259,1.2253,1.2253,1.2254,1.2256,1.2249,1.2246,1.2252,1.2256,1.2254,1.225,1.2253,1.225,1.2241,1.2245,1.228,1.2285,1.229,1.2293,1.2241,1.2241,1.2207,1.2207,1.2207]}]]